Tucson, AZ

7:33 AM MST on August 23, 2019 (GMT -0700)
Tucson International

Weather History for KTUS - May, 2019

Change the Weather History Date:

Friday, May 3, 2019

  Actual Average Record
Temperature  
Mean Temperature 73 °F 72 °F  
Max Temperature 90 °F 87 °F 105 °F (1947)
Min Temperature 56 °F 57 °F 32 °F (1899)
Degree Days  
Heating Degree Days 0 1  
Month to date heating degree days 0 3  
Since 1 July heating degree days 1408 1509  
Cooling Degree Days 8 8  
Month to date cooling degree days 20 22  
Year to date cooling degree days 200 176  
Growing Degree Days 22 (Base 50)    
Moisture  
Dew Point 25 °F    
Average Humidity 17    
Maximum Humidity 30    
Minimum Humidity 4    
Precipitation  
Precipitation 0.00 in 0.01 in 0.57 in (1930)
Month to date precipitation 0.00 0.02  
Year to date precipitation 3.81 2.86  
Sea Level Pressure  
Sea Level Pressure 29.81 in    
Wind  
Wind Speed 6 mph (South)    
Max Wind Speed 14 mph    
Max Gust Speed 21 mph    
Visibility 10 miles    
Events      
T = Trace of Precipitation, MM = Missing Value Source: NWS Daily Summary

Daily Weather History Graph

Daily Weather History Graph

Search for Another Location

Airport or City:

Astronomy

May. 03, 2019 Rise Set
Actual Time 5:35 AM MST 7:05 PM MST
Civil Twilight 5:09 AM MST 7:32 PM MST
Nautical Twilight 4:38 AM MST 8:03 PM MST
Astronomical Twilight 4:05 AM MST 8:36 PM MST
Moon 5:08 AM MST (5/3) 6:04 PM MST (5/3)
Length of Visible Light 14h 22m
Length of Day
13h 29m
Waning Crescent, 1% of the Moon is Illuminated
May 3
Waning Crescent
May 4
New
May 11
First Quarter
May 18
Full
May 26
Last Quarter

Hourly Weather History & Observations

Time (MST) Temp. Dew Point Humidity Pressure Visibility Wind Dir Wind Speed Gust Speed Precip Events Conditions
12:53 AM 63.0 °F 27.0 °F 26% 29.82 in 10.0 mi SW 5.8 mph - N/A   Clear
1:53 AM 62.1 °F 27.0 °F 26% 29.81 in 10.0 mi Calm Calm - N/A   Clear
2:53 AM 59.0 °F 24.1 °F 26% 29.83 in 10.0 mi SSE 6.9 mph - N/A   Clear
3:53 AM 57.0 °F 24.1 °F 28% 29.83 in 10.0 mi SSE 6.9 mph - N/A   Clear
4:53 AM 55.9 °F 23.0 °F 28% 29.83 in 10.0 mi SE 5.8 mph - N/A   Clear
5:53 AM 55.9 °F 25.0 °F 30% 29.85 in 10.0 mi SSE 8.1 mph - N/A   Clear
6:53 AM 60.1 °F 26.1 °F 27% 29.86 in 10.0 mi SSE 8.1 mph - N/A   Clear
7:53 AM 64.9 °F 28.0 °F 25% 29.86 in 10.0 mi SSE 4.6 mph - N/A   Clear
8:53 AM 72.0 °F 28.9 °F 20% 29.86 in 10.0 mi SSE 3.5 mph - N/A   Clear
9:53 AM 75.9 °F 28.9 °F 18% 29.86 in 10.0 mi Calm Calm - N/A   Clear
10:53 AM 79.0 °F 28.9 °F 16% 29.86 in 10.0 mi South 3.5 mph - N/A   Clear
11:53 AM 82.9 °F 25.0 °F 12% 29.83 in 10.0 mi ESE 4.6 mph - N/A   Clear
12:53 PM 84.0 °F 21.0 °F 10% 29.81 in 10.0 mi SSE 3.5 mph - N/A   Clear
1:53 PM 88.0 °F 19.9 °F 8% 29.79 in 10.0 mi NW 5.8 mph - N/A   Clear
2:53 PM 88.0 °F 24.1 °F 10% 29.77 in 10.0 mi NW 5.8 mph - N/A   Clear
3:53 PM 89.1 °F 19.9 °F 8% 29.76 in 10.0 mi WNW 12.7 mph 18.4 mph N/A   Clear
4:53 PM 88.0 °F 21.9 °F 9% 29.75 in 10.0 mi West 9.2 mph - N/A   Clear
5:53 PM 87.1 °F 26.1 °F 11% 29.74 in 10.0 mi North 9.2 mph - N/A   Clear
6:53 PM 84.0 °F 24.1 °F 11% 29.73 in 10.0 mi North 9.2 mph - N/A   Clear
7:53 PM 80.1 °F 24.1 °F 13% 29.75 in 10.0 mi NNW 6.9 mph - N/A   Clear
8:53 PM 77.0 °F 24.1 °F 14% 29.76 in 10.0 mi NW 4.6 mph - N/A   Clear
9:53 PM 72.0 °F 25.0 °F 17% 29.79 in 10.0 mi SSW 8.1 mph - N/A   Clear
10:53 PM 69.1 °F 27.0 °F 21% 29.80 in 10.0 mi South 5.8 mph - N/A   Clear
11:53 PM 66.9 °F 26.1 °F 21% 29.79 in 10.0 mi SSE 4.6 mph - N/A   Clear